Regional Weather Roundup
Issued by NWS

Home | Current Version | Previous Version | Text Only | Print | Product List | Glossary Off
Versions: 1 2 3 4 5 6 7 8 9 10 11 12 13 14 15 16 17 18 19 20 21 22 23 24 25 26 27 28 29 30 31 32 33 34 35 36 37 38 39 40 41 42 43 44 45 46 47 48 49 50

626
ASUS43 KDTX 260610
RWRMI
MICHIGAN HOURLY REGIONAL WEATHER ROUNDUP
NATIONAL WEATHER SERVICE DETROIT/PONTIAC MI
ISSUED BY NATIONAL WEATHER SERVICE GRAND RAPIDS MI
200 AM EDT WED JUL 26 2017

NOTE: "FAIR" INDICATES FEW OR NO CLOUDS BELOW 12,000 FEET WITH NO
SIGNIFICANT WEATHER AND/OR OBSTRUCTION TO VISIBILITY.

MIZ047>049-052>055-059>063-066>070-074>076-081>083-260700-
SOUTHEAST LOWER MICHIGAN

CITY           SKY/WX    TMP DP  RH WIND       PRES   REMARKS
ADRIAN         CLEAR     60  57  89 S3        30.20F
6HR MIN TEMP:  58; 6HR MAX TEMP:  75;

ALMA           CLEAR     57  54  91 CALM      30.18F
ANN ARBOR      PTCLDY    52  52 100 CALM      30.19F FOG
BAD AXE        CLEAR     60  58  92 CALM      30.20F
DETROIT CITY   CLEAR     65  59  81 SE6       30.20F
6HR MIN TEMP:  65; 6HR MAX TEMP:  75;

DETROIT        PTCLDY    65  60  84 CALM      30.20F
6HR MIN TEMP:  65; 6HR MAX TEMP:  76;

FLINT          CLEAR     62  59  90 SW3       30.20S
6HR MIN TEMP:  60; 6HR MAX TEMP:  75;

GROSSE ILE     CLEAR     68  61  77 SE5       30.19F
6HR MIN TEMP:  67; 6HR MAX TEMP:  72;

HILLSDALE      MOCLDY    59  55  88 CALM      30.19S
HOWELL         CLEAR     61  59  92 CALM      30.20R
6HR MIN TEMP:  61; 6HR MAX TEMP:  73;


CITY           SKY/WX    TMP DP  RH WIND       PRES   REMARKS
JACKSON        CLEAR     63  56  78 S5        30.20R
6HR MIN TEMP:  63; 6HR MAX TEMP:  78;

LANSING        CLOUDY    65  54  67 S6        30.20S
6HR MIN TEMP:  64; 6HR MAX TEMP:  75;

MASON          CLOUDY    59  56  91 CALM      30.20R
MONROE         CLEAR     63  57  80 S5        30.19F
6HR MIN TEMP:  59; 6HR MAX TEMP:  72;

MT. CLEMENS    CLEAR     65  62  91 SE9       30.19S
6HR MIN TEMP:  63; 6HR MAX TEMP:  73;

PONTIAC        CLEAR     64  61  90 S3        30.19F
6HR MIN TEMP:  64; 6HR MAX TEMP:  77;

PORT HOPE        N/A     62  59  90 S5        30.18F
6HR MIN TEMP:  61; 6HR MAX TEMP:  70;

PORT HURON     CLEAR     57  55  94 CALM      30.21F
TRI CITIES     CLEAR     64  58  80 S7        30.19S
6HR MIN TEMP:  64; 6HR MAX TEMP:  77;

YPSILANTI      CLEAR     62  60  93 S6        30.19F
6HR MIN TEMP:  60; 6HR MAX TEMP:  76;

$$
MIZ043>046-050>051-056>058-064>065-071>073-077>080-260700-
SOUTHWEST LOWER MICHIGAN

CITY           SKY/WX    TMP DP  RH WIND       PRES   REMARKS
BATTLE CREEK   CLOUDY    66  58  75 SE6       30.19S
6HR MIN TEMP:  65; 6HR MAX TEMP:  77;

BENTON HARBOR  MOCLDY    63  57  81 E3        30.15S
6HR MIN TEMP:  61; 6HR MAX TEMP:  73;

BIG RAPIDS     CLOUDY    62  55  78 CALM      30.14F
6HR MIN TEMP:  60; 6HR MAX TEMP:  75;

COLDWATER      PTCLDY    61  60  94 SE5       30.18S
6HR MIN TEMP:  61; 6HR MAX TEMP:  73;

HOLLAND        CLOUDY    64  59  83 SE7       30.16F
6HR MIN TEMP:  63; 6HR MAX TEMP:  76;

GRAND RAPIDS   MOCLDY    64  58  80 S5        30.17F
6HR MIN TEMP:  64; 6HR MAX TEMP:  77;

KALAMAZOO      CLOUDY    67  55  65 CALM      30.18S
6HR MIN TEMP:  66; 6HR MAX TEMP:  78;

MARSHALL       CLOUDY    62  60  95 CALM      30.19S
6HR MIN TEMP:  62; 6HR MAX TEMP:  76;

MOUNT PLEASANT PTCLDY    64  55  71 S3        30.16F
6HR MIN TEMP:  61; 6HR MAX TEMP:  77;

MUSKEGON       CLOUDY    68  59  73 SE7       30.14F
6HR MIN TEMP:  64; 6HR MAX TEMP:  74;

STURGIS        CLOUDY    63  58  83 SE6       30.17S
6HR MIN TEMP:  63; 6HR MAX TEMP:  74;

$$
MIZ016>042-260700-
NORTHERN LOWER MICHIGAN

CITY           SKY/WX    TMP DP  RH WIND       PRES   REMARKS
ALPENA         MOCLDY    62  57  83 S5        30.14F
6HR MIN TEMP:  60; 6HR MAX TEMP:  72;

BEAVER ISLAND  LGT RAIN  67  61  80 S9        30.07R
6HR MIN TEMP:  65; 6HR MAX TEMP:  73;

BELLAIRE       LGT RAIN  66  59  79 SW3       30.08F
6HR MIN TEMP:  62; 6HR MAX TEMP:  76;

CADILLAC       CLOUDY    67  55  64 S7        30.12F
CHARLEVOIX     CLOUDY    68  62  80 S6        30.11S
GAYLORD        CLOUDY    68  52  56 S12       30.11F
6HR MIN TEMP:  67; 6HR MAX TEMP:  77;

HOUGHTON LAKE  CLOUDY    67  54  63 S6        30.17F
6HR MIN TEMP:  65; 6HR MAX TEMP:  74;

MANISTEE       CLOUDY    66  56  70 S5        30.11S
OSCODA         PTCLDY    64  55  72 S9G16     30.15F
6HR MIN TEMP:  58; 6HR MAX TEMP:  71;

PELLSTON       CLOUDY    63  59  87 CALM      30.07F
6HR MIN TEMP:  60; 6HR MAX TEMP:  74;

TRAVERSE CITY  CLOUDY    68  60  75 VRB3      30.08S
6HR MIN TEMP:  68; 6HR MAX TEMP:  80; 6HR PCP:  0.01;

LUDINGTON      CLOUDY    67  57  72 S6        30.12R
6HR MIN TEMP:  66; 6HR MAX TEMP:  71;

$$
MIZ007>008-015-260700-
EASTERN UPPER MICHIGAN

CITY           SKY/WX    TMP DP  RH WIND       PRES   REMARKS
KINROSS        CLOUDY    61  58  90 SE7       30.07F
6HR MIN TEMP:  59; 6HR MAX TEMP:  70;

MACKINAC ISLAN CLOUDY    65  61  85 S5        30.07F
6HR MIN TEMP:  63; 6HR MAX TEMP:  69;

NEWBERRY       CLOUDY    67  55  66 SW18G28   30.05S
6HR MIN TEMP:  62; 6HR MAX TEMP:  68;

S. S. MARIE    MOCLDY    62  56  80 E5        30.07F
6HR MIN TEMP:  61; 6HR MAX TEMP:  74;

$$
MIZ004>006-011>014-085-260700-
CENTRAL UPPER MICHIGAN

CITY           SKY/WX    TMP DP  RH WIND       PRES   REMARKS
MANISTIQUE     CLOUDY    67  60  75 S12G23    30.05F
6HR MIN TEMP:  65; 6HR MAX TEMP:  68;

ESCANABA       CLOUDY    67  63  87 S14G22    30.04F
6HR MIN TEMP:  66; 6HR MAX TEMP:  71; 6HR PCP:  0.05;

MENOMINEE      CLOUDY    69  63  81 SW8       30.05F
6HR MIN TEMP:  66; 6HR MAX TEMP:  73; 6HR PCP:  0.01;

SAWYER-GWINN   CLOUDY    65  60  85 S14       30.02F
6HR MIN TEMP:  65; 6HR MAX TEMP:  72;

$$
MIZ001>003-009>011-084-260700-
WESTERN UPPER MICHIGAN

CITY           SKY/WX    TMP DP  RH WIND       PRES   REMARKS
IRON MOUNTAIN  CLOUDY    67  61  81 S5        30.02F
6HR MIN TEMP:  67; 6HR MAX TEMP:  73; 6HR PCP: TRACE;

HOUGHTON       CLOUDY    72  60  66 SW14G23   29.92F
6HR MIN TEMP:  71; 6HR MAX TEMP:  75; 6HR PCP: TRACE;

COPPER HARBOR    N/A     72  59  63 W9G20     29.89F
6HR MIN TEMP:  70; 6HR MAX TEMP:  73;

IRONWOOD       CLOUDY    72  65  78 SW12      29.98R
6HR MIN TEMP:  70; 6HR MAX TEMP:  72;

$$

ABBREVIATIONS USED IN REMARKS
   TC - TEMPERATURE IN CELSIUS
  WCI - WIND CHILL INDEX
   HX - HEAT INDEX
  VSB - VISIBILITY





USA.gov is the U.S. government's official web portal to all federal, state and local government web resources and services.